ODIN

Last updated on Mon Oct 20 2025 00:03:35 GMT+0000 (Coordinated Universal Time)

1 26702U 01007A 25292.31959628 .00050866 00000+0 10010-2 0 9996 2 26702 97.4320 318.6752 0002802 2.2127 357.9135 15.47091401351905
UTC large
Height (km)
Speed (km/s)
/
Latitude / Longitude
Inclination (degrees)
Orbital Period (minutes)
Azimuth
Elevation
Range (km)
Doppler Factor

Next 0 passes for location: London (51.5072 / 0.1276)

Sorry there are no passes over London.